User: anonymous   Login
Location: Platte
(43.3870°N, 98.8440°W)
Time: 05:48:58
(UTC-06:00)
Language:

Landsat 7 - Orbit

View from above orbital plane
View from above orbital plane
View from above satellite
View from above satellite

Ground track
Ground track

The orbit data is extracted from the following two-line orbital elements,

1 25682U 99020A   17058.11685519  .00000093  00000-0  30798-4 0  9993
2 25682  98.2232 130.7497 0001024  73.5793 286.5535 14.57103043950560
Epoch (UTC): 27 February 2017 02:48:16
Eccentricity: 0.0001024
inclination: 98.2232°
perigee height: 702 km
apogee height: 703 km
right ascension of ascending node: 130.7497°
argument of perigee: 73.5793°
revolutions per day: 14.57103043
mean anomaly at epoch: 286.5535°
orbit number at epoch: 95056

The dashed part of the orbit path shows where the satellite is in the earth's shadow,  

DLR